Weather History for Wildwood, NJ

Change the Weather History Date:

Friday, November 8, 2013

  Actual Average Record
Temperature  
Mean Temperature 46 °F -  
Max Temperature 51 °F 55 °F 66 °F (1996)
Min Temperature 42 °F 41 °F 30 °F (1999)
Degree Days  
Heating Degree Days 18    
Moisture  
Dew Point 27 °F    
Average Humidity 46    
Maximum Humidity 58    
Minimum Humidity 37    
Precipitation  
Precipitation 0.00 in - - ()
Sea Level Pressure  
Sea Level Pressure 30.15 in    
Wind  
Wind Speed 12 mph (WNW)    
Max Wind Speed 16 mph    
Max Gust Speed 26 mph    
Visibility 10 miles    
Events      
Averages and records for this station are not official NWS values.
T = Trace of Precipitation, MM = Missing Value Source: NWS Daily Summary

Daily Weather History Graph

Daily Weather History Graph

Search for Another Location

Airport:

Trip Planner

Search our weather history database for the weather conditions in past years. The results will help you decide how hot, cold, wet, or windy it might be!

Date:

Astronomy

Nov. 08, 2013 Rise Set
Actual Time 6:34 AM EST 4:51 PM EST
Civil Twilight 6:06 AM EST 5:19 PM EST
Nautical Twilight 5:34 AM EST 5:51 PM EST
Astronomical Twilight 5:03 AM EST 6:22 PM EST
Moon 11:28 AM EST (11/8) 10:09 PM EST (11/8)
Length of Visible Light 11h 12m
Length of Day
10h 16m
Waxing Crescent, 33% of the Moon is Illuminated
Nov 8
Waxing Crescent
Nov 10
First Quarter
Nov 17
Full
Nov 25
Last Quarter
Dec 2
New

Hourly Weather History & Observations

Time (EST) Temp. Windchill Dew Point Humidity Pressure Visibility Wind Dir Wind Speed Gust Speed Precip Events Conditions
12:15 AM 48.2 °F - 33.8 °F 58% 30.01 in 10.0 mi NNW 12.7 mph 17.3 mph N/A   Overcast
12:35 AM 48.2 °F - 33.8 °F 58% 30.01 in 10.0 mi NNW 11.5 mph 19.6 mph N/A   Overcast
12:55 AM 48.2 °F - 30.2 °F 50% 30.02 in 10.0 mi NNW 12.7 mph 21.9 mph N/A   Overcast
1:15 AM 46.4 °F 41.1 °F 30.2 °F 53% 30.02 in 10.0 mi NW 11.5 mph 23.0 mph N/A   Overcast
1:35 AM 46.4 °F 41.1 °F 30.2 °F 53% 30.03 in 10.0 mi NW 11.5 mph 20.7 mph N/A   Overcast
1:55 AM 46.4 °F 40.7 °F 28.4 °F 50% 30.03 in 10.0 mi NW 12.7 mph 24.2 mph N/A   Overcast
2:15 AM 46.4 °F 40.7 °F 28.4 °F 50% 30.04 in 10.0 mi NW 12.7 mph 20.7 mph N/A   Overcast
2:35 AM 44.6 °F 38.4 °F 26.6 °F 49% 30.05 in 10.0 mi NW 12.7 mph 21.9 mph N/A   Overcast
2:55 AM 44.6 °F 38.4 °F 24.8 °F 46% 30.05 in 10.0 mi NW 12.7 mph 18.4 mph N/A   Mostly Cloudy
3:15 AM 44.6 °F 38.4 °F 24.8 °F 46% 30.06 in 10.0 mi NW 12.7 mph 25.3 mph N/A   Partly Cloudy
3:35 AM 44.6 °F 38.1 °F 23.0 °F 43% 30.06 in 10.0 mi NW 13.8 mph 19.6 mph N/A   Clear
3:55 AM 44.6 °F 39.2 °F 24.8 °F 46% 30.07 in 10.0 mi NW 10.4 mph 19.6 mph N/A   Clear
4:15 AM 44.6 °F 38.8 °F 24.8 °F 46% 30.08 in 10.0 mi NW 11.5 mph 20.7 mph N/A   Clear
4:35 AM 44.6 °F 38.4 °F 24.8 °F 46% 30.08 in 10.0 mi WNW 12.7 mph 21.9 mph N/A   Clear
4:55 AM 42.8 °F 36.6 °F 24.8 °F 49% 30.08 in 10.0 mi WNW 11.5 mph - N/A   Clear
5:15 AM 42.8 °F 37.0 °F 26.6 °F 53% 30.09 in 10.0 mi WNW 10.4 mph 20.7 mph N/A   Clear
5:35 AM 44.6 °F 38.4 °F 26.6 °F 49% 30.09 in 10.0 mi WNW 12.7 mph 18.4 mph N/A   Clear
5:55 AM 44.6 °F 38.8 °F 26.6 °F 49% 30.10 in 10.0 mi WNW 11.5 mph 20.7 mph N/A   Clear
6:15 AM 44.6 °F 39.2 °F 26.6 °F 49% 30.11 in 10.0 mi WNW 10.4 mph 18.4 mph N/A   Mostly Cloudy
6:35 AM 44.6 °F 39.7 °F 28.4 °F 53% 30.11 in 10.0 mi WNW 9.2 mph 18.4 mph N/A   Mostly Cloudy
6:55 AM 44.6 °F 38.8 °F 28.4 °F 53% 30.12 in 10.0 mi WNW 11.5 mph 16.1 mph N/A   Mostly Cloudy
7:15 AM 44.6 °F 39.2 °F 26.6 °F 49% 30.13 in 10.0 mi WNW 10.4 mph 16.1 mph N/A   Mostly Cloudy
7:35 AM 44.6 °F 38.8 °F 28.4 °F 53% 30.14 in 10.0 mi WNW 11.5 mph - N/A   Clear
7:55 AM 46.4 °F 41.1 °F 28.4 °F 50% 30.15 in 10.0 mi WNW 11.5 mph 19.6 mph N/A   Clear
8:15 AM 46.4 °F 40.1 °F 28.4 °F 50% 30.15 in 10.0 mi West 15.0 mph - N/A   Clear
8:35 AM 46.4 °F 40.7 °F 28.4 °F 50% 30.15 in 10.0 mi West 12.7 mph 17.3 mph N/A   Clear
8:55 AM 46.4 °F 40.4 °F 28.4 °F 50% 30.15 in 10.0 mi West 13.8 mph 17.3 mph N/A   Clear
9:15 AM 48.2 °F - 28.4 °F 46% 30.14 in 10.0 mi West 12.7 mph 19.6 mph N/A   Clear
9:35 AM 48.2 °F - 30.2 °F 50% 30.14 in 10.0 mi West 13.8 mph 20.7 mph N/A   Clear
9:55 AM 48.2 °F - 30.2 °F 50% 30.14 in 10.0 mi West 12.7 mph 19.6 mph N/A   Clear
10:15 AM 48.2 °F - 28.4 °F 46% 30.13 in 10.0 mi WNW 10.4 mph 24.2 mph N/A   Clear
10:35 AM 48.2 °F - 28.4 °F 46% 30.13 in 10.0 mi WNW 12.7 mph 23.0 mph N/A   Clear
10:55 AM 50.0 °F - 28.4 °F 43% 30.14 in 10.0 mi WNW 15.0 mph 21.9 mph N/A   Scattered Clouds
11:15 AM 50.0 °F - 28.4 °F 43% 30.13 in 10.0 mi West 16.1 mph 25.3 mph N/A   Overcast
11:35 AM 50.0 °F - 28.4 °F 43% 30.13 in 10.0 mi WNW 12.7 mph 19.6 mph N/A   Overcast
11:55 AM 50.0 °F - 28.4 °F 43% 30.12 in 10.0 mi NW 10.4 mph 21.9 mph N/A   Mostly Cloudy
12:15 PM 50.0 °F - 28.4 °F 43% 30.12 in 10.0 mi NW 11.5 mph 20.7 mph N/A   Partly Cloudy
12:35 PM 50.0 °F - 28.4 °F 43% 30.12 in 10.0 mi NW 10.4 mph 21.9 mph N/A   Mostly Cloudy
12:55 PM 50.0 °F - 26.6 °F 40% 30.12 in 10.0 mi NW 13.8 mph 24.2 mph N/A   Mostly Cloudy
1:15 PM 51.8 °F - 26.6 °F 38% 30.12 in 10.0 mi WNW 12.7 mph 23.0 mph N/A   Overcast
1:35 PM 48.2 °F - 26.6 °F 43% 30.12 in 10.0 mi WNW 15.0 mph 19.6 mph N/A   Overcast
1:55 PM 48.2 °F - 26.6 °F 43% 30.13 in 10.0 mi WNW 16.1 mph 26.5 mph N/A   Overcast
2:15 PM 50.0 °F - 26.6 °F 40% 30.14 in 10.0 mi NW 15.0 mph 25.3 mph N/A   Mostly Cloudy
2:35 PM 50.0 °F - 26.6 °F 40% 30.14 in 10.0 mi NW 13.8 mph 23.0 mph N/A   Mostly Cloudy
2:55 PM 50.0 °F - 24.8 °F 37% 30.15 in 10.0 mi WNW 10.4 mph 26.5 mph N/A   Scattered Clouds
3:15 PM 50.0 °F - 24.8 °F 37% 30.16 in 10.0 mi WNW 11.5 mph 21.9 mph N/A   Partly Cloudy
3:35 PM 48.2 °F - 24.8 °F 40% 30.16 in 10.0 mi NW 12.7 mph 21.9 mph N/A   Mostly Cloudy
3:55 PM 48.2 °F - 26.6 °F 43% 30.17 in 10.0 mi WNW 15.0 mph 24.2 mph N/A   Overcast
4:15 PM 48.2 °F - 26.6 °F 43% 30.18 in 10.0 mi NW 10.4 mph 24.2 mph N/A   Mostly Cloudy
4:35 PM 48.2 °F - 24.8 °F 40% 30.18 in 10.0 mi NNW 10.4 mph 19.6 mph N/A   Mostly Cloudy
4:55 PM 46.4 °F 41.1 °F 26.6 °F 46% 30.19 in 10.0 mi WNW 11.5 mph 18.4 mph N/A   Scattered Clouds
5:15 PM 46.4 °F 41.1 °F 24.8 °F 43% 30.19 in 10.0 mi WNW 11.5 mph 16.1 mph N/A   Scattered Clouds
5:35 PM 46.4 °F 41.1 °F 24.8 °F 43% 30.21 in 10.0 mi WNW 11.5 mph 19.6 mph N/A   Scattered Clouds
5:55 PM 46.4 °F 42.4 °F 24.8 °F 43% 30.21 in 10.0 mi NW 8.1 mph 18.4 mph N/A   Scattered Clouds
6:15 PM 46.4 °F 42.4 °F 24.8 °F 43% 30.23 in 10.0 mi WNW 8.1 mph 19.6 mph N/A   Partly Cloudy
6:35 PM 46.4 °F 41.5 °F 24.8 °F 43% 30.23 in 10.0 mi WNW 10.4 mph 19.6 mph N/A   Clear
6:55 PM 46.4 °F 40.7 °F 24.8 °F 43% 30.24 in 10.0 mi WNW 12.7 mph 16.1 mph N/A   Clear
7:15 PM 46.4 °F 41.9 °F 24.8 °F 43% 30.24 in 10.0 mi WNW 9.2 mph 19.6 mph N/A   Clear
7:35 PM 46.4 °F 41.5 °F 24.8 °F 43% 30.25 in 10.0 mi WNW 10.4 mph 17.3 mph N/A   Clear
7:55 PM 46.4 °F 40.7 °F 24.8 °F 43% 30.25 in 10.0 mi WNW 12.7 mph 20.7 mph N/A   Clear
8:15 PM 46.4 °F 40.7 °F 24.8 °F 43% 30.26 in 10.0 mi NW 12.7 mph 19.6 mph N/A   Clear
8:35 PM 46.4 °F 41.1 °F 24.8 °F 43% 30.26 in 10.0 mi NW 11.5 mph 19.6 mph N/A   Clear
8:55 PM 46.4 °F 40.7 °F 26.6 °F 46% 30.26 in 10.0 mi NW 12.7 mph 17.3 mph N/A   Clear
9:15 PM 46.4 °F 41.9 °F 26.6 °F 46% 30.27 in 10.0 mi NW 9.2 mph 24.2 mph N/A   Clear
9:35 PM 46.4 °F 41.5 °F 26.6 °F 46% 30.28 in 10.0 mi NW 10.4 mph 18.4 mph N/A   Clear
9:55 PM 44.6 °F 40.2 °F 26.6 °F 49% 30.29 in 10.0 mi NW 8.1 mph 16.1 mph N/A   Clear
10:15 PM 46.4 °F 42.4 °F 26.6 °F 46% 30.29 in 10.0 mi WNW 8.1 mph 16.1 mph N/A   Clear
10:35 PM 46.4 °F 42.4 °F 26.6 °F 46% 30.29 in 10.0 mi WNW 8.1 mph 19.6 mph N/A   Partly Cloudy
10:55 PM 44.6 °F 40.7 °F 26.6 °F 49% 30.29 in 10.0 mi WNW 6.9 mph - N/A   Clear
11:15 PM 44.6 °F 40.7 °F 26.6 °F 49% 30.30 in 10.0 mi NW 6.9 mph - N/A   Clear
11:35 PM 44.6 °F 40.7 °F 26.6 °F 49% 30.29 in 10.0 mi NW 6.9 mph - N/A   Clear
11:55 PM 44.6 °F 40.7 °F 24.8 °F 46% 30.29 in 10.0 mi NW 6.9 mph - N/A   Clear